Weather History for Spirit of St Louis, MO

Change the Weather History Date:

Tuesday, October 9, 2012

  Actual Average Record
Temperature  
Mean Temperature 52 °F -  
Max Temperature 68 °F 69 °F 86 °F (2010)
Min Temperature 37 °F 44 °F 28 °F (2000)
Degree Days  
Heating Degree Days 14    
Growing Degree Days 2 (Base 50)    
Moisture  
Dew Point 41 °F    
Average Humidity 64    
Maximum Humidity 89    
Minimum Humidity 40    
Precipitation  
Precipitation 0.00 in - - ()
Sea Level Pressure  
Sea Level Pressure 30.00 in    
Wind  
Wind Speed 5 mph (SW)    
Max Wind Speed 18 mph    
Max Gust Speed 23 mph    
Visibility 10 miles    
Events Rain    
Averages and records for this station are not official NWS values.
T = Trace of Precipitation, MM = Missing Value Source: NWS Daily Summary

Daily Weather History Graph

Daily Weather History Graph

Search for Another Location

Airport:

Trip Planner

Search our weather history database for the weather conditions in past years. The results will help you decide how hot, cold, wet, or windy it might be!

Date:

Astronomy

Oct. 09, 2012 Rise Set
Actual Time 7:06 AM CDT 6:32 PM CDT
Civil Twilight 6:39 AM CDT 6:58 PM CDT
Nautical Twilight 6:09 AM CDT 7:29 PM CDT
Astronomical Twilight 5:38 AM CDT 8:00 PM CDT
Moon 12:47 AM CDT (10/9) 2:56 PM CDT (10/9)
Length of Visible Light 12h 19m
Length of Day
11h 25m
Last Quarter, 36% of the Moon is Illuminated
Oct 9
Last Quarter
Oct 15
New
Oct 21
First Quarter
Oct 29
Full
Nov 6
Last Quarter

Hourly Weather History & Observations

Time (CDT) Temp. Windchill Dew Point Humidity Pressure Visibility Wind Dir Wind Speed Gust Speed Precip Events Conditions
12:54 AM 48.0 °F - 36.0 °F 63% 30.06 in 10.0 mi Variable 3.5 mph - N/A   Clear
1:54 AM 46.9 °F - 36.0 °F 66% 30.06 in 10.0 mi Calm Calm - N/A   Clear
2:54 AM 43.0 °F 40.3 °F 36.0 °F 76% 30.06 in 10.0 mi ENE 4.6 mph - N/A   Clear
3:54 AM 39.0 °F 36.8 °F 35.1 °F 86% 30.05 in 10.0 mi East 3.5 mph - N/A   Clear
4:54 AM 41.0 °F - 36.0 °F 82% 30.04 in 10.0 mi Calm Calm - N/A   Clear
5:54 AM 37.0 °F - 34.0 °F 89% 30.06 in 10.0 mi Calm Calm - N/A   Clear
6:54 AM 37.9 °F - 35.1 °F 89% 30.07 in 10.0 mi Calm Calm - N/A   Clear
7:54 AM 41.0 °F - 36.0 °F 82% 30.07 in 10.0 mi Calm Calm - N/A   Clear
8:54 AM 52.0 °F - 41.0 °F 66% 30.06 in 10.0 mi SSW 12.7 mph - N/A   Clear
9:54 AM 55.0 °F - 42.1 °F 62% 30.05 in 10.0 mi SSW 10.4 mph - N/A   Clear
10:54 AM 60.1 °F - 43.0 °F 53% 30.04 in 10.0 mi SSW 8.1 mph - N/A   Scattered Clouds
11:54 AM 63.0 °F - 43.0 °F 48% 30.01 in 10.0 mi SSW 13.8 mph 20.7 mph N/A   Clear
12:54 PM 64.9 °F - 42.1 °F 43% 29.97 in 10.0 mi SSW 12.7 mph 18.4 mph N/A   Clear
1:54 PM 66.0 °F - 42.1 °F 42% 29.95 in 10.0 mi SW 6.9 mph 18.4 mph N/A   Clear
2:54 PM 66.9 °F - 42.1 °F 40% 29.93 in 10.0 mi SW 8.1 mph 20.7 mph N/A   Clear
3:54 PM 66.9 °F - 42.1 °F 40% 29.91 in 10.0 mi South 10.4 mph 18.4 mph N/A   Partly Cloudy
4:54 PM 66.9 °F - 42.1 °F 40% 29.92 in 10.0 mi SSW 9.2 mph - N/A   Clear
5:54 PM 64.0 °F - 42.1 °F 45% 29.92 in 10.0 mi SW 6.9 mph - N/A   Mostly Cloudy
6:54 PM 55.9 °F - 44.1 °F 64% 29.93 in 10.0 mi South 3.5 mph - N/A   Scattered Clouds
7:54 PM 55.0 °F - 45.0 °F 69% 29.93 in 10.0 mi Calm Calm - N/A   Overcast
8:54 PM 54.0 °F - 46.9 °F 77% 29.94 in 10.0 mi WSW 3.5 mph - N/A   Mostly Cloudy
9:54 PM 59.0 °F - 45.0 °F 60% 29.94 in 10.0 mi Calm Calm - N/A   Overcast
10:54 PM 55.0 °F - 44.1 °F 67% 30.01 in 10.0 mi North 18.4 mph 23.0 mph 0.00 in   Overcast
11:01 PM 55.4 °F - 44.6 °F 67% 30.01 in 10.0 mi North 15.0 mph - N/A   Overcast
11:44 PM 53.6 °F - 44.6 °F 72% 30.04 in 10.0 mi NNW 10.4 mph 21.9 mph N/A   Overcast
11:54 PM 52.0 °F - 45.0 °F 77% 30.05 in 9.0 mi North 12.7 mph 21.9 mph 0.00 in Rain Light Rain